Location: Dehesa de la Cepeda
(40.6574°N, 4.3013°W)
Time: 09:41:50
(UTC+00:00)

GP-B - Pass Details

Date: 05 July 2020
Orbit: 631 x 635 km, 89.8° (Epoch: 07 August)

Event Time Altitude Azimuth Distance (km) Brightness Sun altitude
Rises 23:42:43 0° 2° (N) 2,937 7.8 -26.0°
Reaches altitude 10° 23:44:57 10° 3° (N) 2,024 6.7 -26.1°
Enters shadow 23:48:51 68° 15° (NNE) 684 3.3 -26.2°
